Location: Unspecified
(0.0000°N, 0.0000°E)
Time: 12:47:57
(UTC+00:00)

Vanguard 2 - Pass Details

Date: 20 September 2019
Orbit: 554 x 2937 km, 32.9° (Epoch: 13 October)

Event Time Altitude Azimuth Distance (km) Brightness Sun altitude
Rises 13:49:49 0° 255° (WSW) 2,997 11.0 60.9°
Reaches altitude 10° 13:53:24 10° 224° (SW) 2,366 10.5 60.0°
Maximum altitude 13:55:45 13° 198° (SSW) 2,399 10.4 59.4°
Drops below altitude 10° 13:58:29 10° 174° (S) 2,857 10.5 58.7°
Sets 14:03:58 0° 148° (SSE) 4,407 11.2 57.4°
